[[{"header":{"parameterUnit":"m.s-1","parameterCategory":1,"la1":30.2991,"la2":30.254,"lo1":-89.0895,"lo2":-89.0444,"dy":0.0017,"dx":0.0017,"nx":28,"ny":28,"refTime":"2024-04-05T21:00:00:Z","depth":0,"parameterNumber":2,"parameterNumberName":"U-component_of_WINDS"},"data":[0,0,0,0,0,0,0,0,0,0,0,0,0,0,0,0,0,0,0,0,0,0,0,0,0,0,0,0,0,0,0,0,0,0,0,0,0,0,0,0,0,0,0,0,0,0,0,0,0,0,0,0,0,0,0,0,0,0,-5.4266,-5.4267,0,-5.4328,-5.4329,-5.4329,-5.4187,-5.4182,-5.4178,-5.4174,-5.4236,-5.4241,-5.4247,0,0,0,0,0,0,0,0,0,0,0,0,0,-5.4021,-5.4026,-5.4266,-5.4267,-5.4267,-5.4328,-5.4329,-5.4329,-5.4188,-5.4182,-5.4177,-5.4172,-5.4234,-5.4241,-5.4248,0,0,0,0,0,0,0,0,0,0,0,0,0,-5.411,-5.4028,-5.4266,-5.4204,-5.4199,-5.4328,-5.4329,-5.433,-5.4189,-5.4182,-5.4175,-5.4169,-5.4231,-5.424,-5.4249,-5.4439,0,0,-5.4276,-5.4279,0,0,0,0,0,0,0,0,-5.4105,-5.4119,-5.4212,-5.4209,-5.4203,-5.4243,-5.4265,-5.4366,-5.4191,-5.4193,-5.4174,-5.4166,-5.4243,-5.4251,-5.4277,-5.4442,-5.4445,-5.4276,-5.4282,-5.4285,-5.4288,0,0,0,0,0,0,0,-5.4099,-5.4115,-5.429,-5.4214,-5.4208,-5.4172,-5.4177,-5.4283,-5.4255,-5.4192,-5.4182,-5.4191,-5.4239,-5.4269,-5.4278,-5.4446,-5.4276,-5.4284,-5.4289,-5.4293,-5.4767,-5.4774,0,0,0,0,0,0,-5.4101,-5.4111,-5.4288,-5.4292,-5.4136,-5.4182,-5.4188,-5.4237,-5.4254,-5.425,-5.4197,-5.4184,-5.4257,-5.4268,-5.4279,-5.4502,-5.4285,-5.4294,-5.4299,-5.476,-5.4769,-5.4776,0,0,0,0,0,0,-5.4096,-5.4118,-5.4286,-5.4199,-5.4218,-5.4194,-5.425,-5.4242,-5.4271,-5.4258,-5.4252,-5.4233,-5.4252,-5.4267,-5.44,-5.4502,-5.4298,-5.4306,-5.4751,-5.4762,-5.4773,-5.4949,0,0,0,0,0,0,-5.409,-5.4117,-5.4191,-5.4202,-5.4223,-5.4407,-5.4256,-5.4248,-5.4287,-5.4271,-5.429,-5.4286,-5.4248,-5.4388,-5.4409,-5.451,-5.4313,-5.4742,-5.4756,-5.4769,-5.4934,-5.4965,-5.4991,0,0,0,0,0,-5.4082,-5.4238,-5.4195,-5.4217,-5.4314,-5.4413,-5.4425,-5.4379,-5.4296,-5.4368,-5.4359,-5.4285,-5.4488,-5.4402,-5.4425,-5.4531,-5.4735,-5.4752,-5.4768,-5.4922,-5.4959,-5.4991,0,0,0,0,0,0,-5.424,-5.4239,-5.4191,-5.4356,-5.4386,-5.4389,-5.4479,-5.4421,-5.4474,-5.4457,-5.4397,-5.4402,-5.4546,-5.4552,-5.4457,-5.4715,-5.4597,-5.4619,-5.4706,-5.4741,-5.4769,-5.4764,-5.432,0,0,0,0,0,-5.4294,-5.4375,-5.437,-5.4516,-5.4533,-5.4504,-5.4546,-5.4507,-5.4536,-5.4548,-5.4548,-5.4578,-5.4647,-5.4695,-5.4759,-5.4935,-5.4935,-5.5018,-5.5047,-5.507,-5.5089,-5.518,-5.5216,-5.4831,-5.483,-5.483,0,0,-5.4406,-5.4415,-5.4471,-5.4548,-5.4566,-5.4651,-5.4516,-5.4611,-5.4673,-5.4562,-5.4687,-5.4689,-5.4718,-5.4873,-5.4941,-5.4882,-5.5196,-5.5091,-5.511,-5.5116,-5.5201,-5.5237,-5.527,-5.4842,-5.484,-5.4838,0,0,-5.4653,-5.467,-5.4792,-5.4814,-5.4843,-5.4823,-5.4852,-5.4865,-5.4861,-5.4986,-5.4904,-5.4976,-5.5098,-5.5121,-5.5149,-5.5404,-5.5337,-5.5427,-5.5575,-5.5664,-5.5695,-5.5721,-5.581,-5.5843,-5.5446,-5.5446,-5.5447,0,-5.4789,-5.4914,-5.4862,-5.4963,-5.4998,-5.4902,-5.5024,-5.5047,-5.5097,-5.5122,-5.5055,-5.5205,-5.5218,-5.5376,-5.5438,-5.5464,-5.5494,-5.5424,-5.5695,-5.5721,-5.5745,-5.5829,-5.5863,-5.5457,-5.5456,-5.5454,-5.5454,0,-5.5078,-5.5166,-5.5261,-5.5311,-5.5357,-5.5468,-5.5432,-5.5485,-5.5442,-5.5428,-5.5555,-5.5567,-5.563,-5.5665,-5.5625,-5.5817,-5.5779,-5.5705,-5.5585,-5.5793,-5.5871,-5.5903,-5.5472,-5.5468,-5.5465,-5.5462,0,0,-5.5427,-5.5446,-5.5482,-5.5502,-5.5528,-5.5594,-5.57,-5.5762,-5.5807,-5.5844,-5.593,-5.6035,-5.5966,-5.5997,-5.5959,-5.6038,-5.6236,-5.5953,-5.5952,-5.6003,-5.6445,-5.65,-5.6538,-5.6192,-5.6198,-5.6203,-5.6442,0,-5.567,-5.5853,-5.5809,-5.5989,-5.6068,-5.5977,-5.6069,-5.6094,-5.6083,-5.6148,-5.6135,-5.621,-5.6114,-5.6132,-5.6206,-5.6196,-5.6323,-5.6178,-5.627,-5.6274,-5.6264,-5.6579,-5.6638,-5.6863,-5.6472,-5.6478,-5.6481,0,-5.5979,-5.6027,-5.6216,-5.6226,-5.6257,-5.6341,-5.6393,-5.6457,-5.6482,-5.6469,-5.6504,-5.6449,-5.6552,-5.6432,-5.6572,-5.6474,-5.6509,-5.6509,-5.6517,-5.6522,-5.6389,-5.6591,-5.6934,-5.6968,-5.6529,-5.6525,-5.6522,0,-5.6212,-5.6324,-5.6451,-5.6471,-5.6487,-5.6548,-5.6557,-5.6576,-5.6615,-5.6661,-5.6685,-5.6742,-5.6773,-5.6818,-5.6779,-5.6696,-5.6924,-5.6802,-5.6914,-5.6915,-5.6965,-5.6962,-5.7317,-5.6991,-5.6991,-5.699,-5.6989,0,-5.6487,-5.6605,-5.6555,-5.6633,-5.6762,-5.671,-5.6838,-5.6837,-5.6854,-5.6929,-5.6854,-5.6925,-5.687,-5.6936,-5.6907,-5.7026,-5.7041,-5.7031,-5.7022,-5.7037,-5.7038,-5.7058,-5.704,-5.6999,-5.6997,-5.6995,-5.6994,0,-5.6769,-5.6741,-5.6872,-5.6876,-5.688,-5.6975,-5.6977,-5.7048,-5.7032,-5.7127,-5.7146,-5.7121,-5.7194,-5.716,-5.7238,-5.7218,-5.737,-5.7341,-5.7362,-5.7353,-5.7467,-5.7456,-5.7845,-5.7892,-5.7538,-5.7542,-5.7545,0,-5.6946,-5.7034,-5.7048,-5.7092,-5.7107,-5.718,-5.722,-5.7171,-5.7215,-5.725,-5.7316,-5.7384,-5.7435,-5.7557,-5.7544,-5.7603,-5.7573,-5.7705,-5.7581,-5.7593,-5.7572,-5.7566,-5.7574,-5.7729,-5.7734,-5.7737,-5.774,0,-5.7262,-5.7243,-5.7303,-5.7359,-5.7408,-5.745,-5.7484,-5.7525,-5.7477,-5.753,-5.7605,-5.7645,-5.7723,-5.779,-5.7841,-5.7848,-5.7786,-5.7779,-5.7807,-5.7823,-5.7831,-5.7826,-5.7428,-5.777,-5.7767,-5.7765,-5.7763,-5.7762,-5.7495,-5.7568,-5.7589,-5.7658,-5.7679,-5.7713,-5.7779,-5.7771,-5.7832,-5.7892,-5.786,-5.7947,-5.7967,-5.8029,-5.8045,-5.8111,-5.8058,-5.8101,-5.8111,-5.8122,-5.8136,-5.7822,-5.812,-5.8119,-5.8118,-5.8118,-5.8117,0,-5.7804,-5.7813,-5.7877,-5.7928,-5.7982,-5.7919,-5.7953,-5.8002,-5.808,-5.8105,-5.8157,-5.8241,-5.8306,-5.8298,-5.8356,-5.8411,-5.8383,-5.8427,-5.8422,-5.8424,-5.818,-5.8149,-5.8448,-5.8448,-5.8448,-5.8448,-5.8448,-5.8448,-5.7972,-5.8092,-5.8076,-5.8205,-5.8212,-5.8297,-5.8322,-5.8352,-5.8371,-5.8469,-5.8522,-5.8517,-5.8529,-5.8587,-5.8642,-5.8638,-5.8662,-5.8717,-5.8702,-5.8474,-5.8442,-5.841,-5.838,-5.8723,-5.8724,-5.894,-5.8942,-5.8943]},{"header":{"parameterUnit":"m.s-1","parameterCategory":1,"la1":30.2991,"la2":30.254,"lo1":-89.0895,"lo2":-89.0444,"dy":0.0017,"dx":0.0017,"nx":28,"ny":28,"refTime":"2024-04-05T21:00:00:Z","depth":0,"parameterNumber":3,"parameterNumberName":"V-component_of_WINDS"},"data":[0,0,0,0,0,0,0,0,0,0,0,0,0,0,0,0,0,0,0,0,0,0,0,0,0,0,0,0,0,0,0,0,0,0,0,0,0,0,0,0,0,0,0,0,0,0,0,0,0,0,0,0,0,0,0,0,0,0,-2.0616,-2.0616,0,-2.0688,-2.0689,-2.069,-2.0694,-2.0693,-2.0692,-2.0691,-2.0766,-2.0769,-2.0771,0,0,0,0,0,0,0,0,0,0,0,0,0,-2.0478,-2.0481,-2.0616,-2.0616,-2.0617,-2.0688,-2.0689,-2.069,-2.0694,-2.0693,-2.0692,-2.0691,-2.0765,-2.0768,-2.0772,0,0,0,0,0,0,0,0,0,0,0,0,0,-2.0543,-2.0482,-2.0615,-2.0628,-2.063,-2.0688,-2.0689,-2.069,-2.0694,-2.0693,-2.0691,-2.069,-2.0764,-2.0768,-2.0772,-2.0823,0,0,-2.0785,-2.0787,0,0,0,0,0,0,0,0,-2.054,-2.0548,-2.0625,-2.0627,-2.0629,-2.0681,-2.0668,-2.0735,-2.0694,-2.067,-2.0691,-2.069,-2.0739,-2.0745,-2.0761,-2.0827,-2.083,-2.0785,-2.0788,-2.079,-2.0791,0,0,0,0,0,0,0,-2.0535,-2.0545,-2.0644,-2.0626,-2.0629,-2.0629,-2.0637,-2.0681,-2.071,-2.0672,-2.0672,-2.0681,-2.074,-2.0757,-2.0763,-2.0831,-2.0785,-2.0789,-2.0791,-2.0793,-2.094,-2.0941,0,0,0,0,0,0,-2.0528,-2.0541,-2.0642,-2.0647,-2.058,-2.0633,-2.0641,-2.0665,-2.071,-2.0715,-2.0682,-2.0681,-2.0751,-2.0758,-2.0766,-2.0827,-2.079,-2.0794,-2.0796,-2.0939,-2.094,-2.0942,0,0,0,0,0,0,-2.0525,-2.0537,-2.0639,-2.0594,-2.0607,-2.0636,-2.0663,-2.0667,-2.0685,-2.0717,-2.0723,-2.0694,-2.075,-2.076,-2.0808,-2.083,-2.0795,-2.0799,-2.0937,-2.0939,-2.0941,-2.0951,0,0,0,0,0,0,-2.0521,-2.0536,-2.0556,-2.0595,-2.0609,-2.0681,-2.0665,-2.067,-2.0692,-2.0692,-2.0731,-2.0736,-2.075,-2.0802,-2.0813,-2.0835,-2.0802,-2.0935,-2.0938,-2.094,-2.0949,-2.0953,-2.0957,0,0,0,0,0,-2.0516,-2.0557,-2.0557,-2.057,-2.0635,-2.0682,-2.0691,-2.0706,-2.0694,-2.0714,-2.0734,-2.0735,-2.0826,-2.0807,-2.0819,-2.0843,-2.0934,-2.0937,-2.094,-2.0947,-2.0952,-2.0957,0,0,0,0,0,0,-2.0521,-2.0562,-2.0563,-2.0617,-2.0646,-2.0683,-2.0709,-2.0711,-2.0744,-2.0742,-2.0759,-2.0768,-2.0816,-2.0834,-2.0813,-2.0893,-2.0878,-2.0884,-2.088,-2.0885,-2.0889,-2.0883,-2.0806,0,0,0,0,0,-2.0528,-2.0563,-2.0597,-2.0642,-2.0656,-2.068,-2.0701,-2.071,-2.074,-2.0753,-2.0777,-2.0806,-2.0841,-2.0864,-2.0899,-2.0952,-2.0959,-2.0974,-2.0978,-2.0981,-2.0985,-2.1013,-2.1019,-2.0952,-2.0952,-2.0952,0,0,-2.0544,-2.0571,-2.0592,-2.0643,-2.0667,-2.0702,-2.069,-2.0728,-2.0754,-2.0759,-2.0805,-2.0824,-2.0858,-2.0909,-2.0932,-2.0925,-2.1005,-2.0985,-2.0987,-2.099,-2.1017,-2.1023,-2.1029,-2.0954,-2.0954,-2.0954,0,0,-2.059,-2.0614,-2.0653,-2.0676,-2.0711,-2.0727,-2.0736,-2.0772,-2.0784,-2.0831,-2.0835,-2.0865,-2.0926,-2.095,-2.0969,-2.1022,-2.1023,-2.1032,-2.1053,-2.108,-2.1085,-2.109,-2.1107,-2.1113,-2.1037,-2.1037,-2.1037,0,-2.0605,-2.0658,-2.0673,-2.071,-2.0732,-2.0736,-2.0775,-2.0797,-2.0842,-2.0856,-2.0848,-2.0923,-2.0946,-2.1001,-2.1014,-2.103,-2.104,-2.1028,-2.1083,-2.1088,-2.1093,-2.1109,-2.1116,-2.1038,-2.1038,-2.1038,-2.1038,0,-2.0674,-2.0711,-2.0738,-2.078,-2.0805,-2.0843,-2.0862,-2.0885,-2.0891,-2.0907,-2.0954,-2.0982,-2.1021,-2.1034,-2.1041,-2.109,-2.1085,-2.108,-2.1065,-2.11,-2.1116,-2.1122,-2.1039,-2.1039,-2.1039,-2.1038,0,0,-2.0727,-2.0774,-2.0784,-2.0802,-2.084,-2.0869,-2.0906,-2.0944,-2.0963,-2.0993,-2.1024,-2.1074,-2.1069,-2.1091,-2.11,-2.1124,-2.1161,-2.1116,-2.1117,-2.1122,-2.1215,-2.1218,-2.1225,-2.1162,-2.1163,-2.1164,-2.1212,0,-2.0776,-2.0843,-2.0856,-2.0913,-2.0946,-2.095,-2.0982,-2.1008,-2.1024,-2.1053,-2.107,-2.1105,-2.1096,-2.111,-2.1133,-2.1152,-2.118,-2.1149,-2.119,-2.1192,-2.1181,-2.1234,-2.1238,-2.1281,-2.1218,-2.1219,-2.122,0,-2.0843,-2.0874,-2.0934,-2.0966,-2.098,-2.1009,-2.1043,-2.1072,-2.1101,-2.1111,-2.1135,-2.1141,-2.1179,-2.1162,-2.1213,-2.1192,-2.1209,-2.1221,-2.1223,-2.1227,-2.1208,-2.1239,-2.1296,-2.1302,-2.123,-2.123,-2.1229,0,-2.0874,-2.093,-2.0973,-2.0989,-2.1027,-2.1047,-2.1064,-2.1092,-2.1113,-2.1143,-2.1156,-2.119,-2.1209,-2.1235,-2.1249,-2.1236,-2.1299,-2.1284,-2.1308,-2.1307,-2.1321,-2.132,-2.138,-2.1333,-2.1333,-2.1333,-2.1333,0,-2.0927,-2.0964,-2.0987,-2.1014,-2.1054,-2.1068,-2.1108,-2.1124,-2.1149,-2.1178,-2.1183,-2.121,-2.1228,-2.1257,-2.1269,-2.1309,-2.1318,-2.1326,-2.1328,-2.1325,-2.1324,-2.1337,-2.1334,-2.1335,-2.1334,-2.1334,-2.1334,0,-2.0969,-2.0986,-2.1033,-2.1064,-2.1073,-2.1101,-2.1128,-2.1154,-2.1168,-2.1205,-2.1214,-2.1237,-2.1271,-2.1288,-2.1332,-2.1339,-2.1384,-2.1385,-2.1374,-2.1375,-2.1397,-2.1394,-2.1468,-2.1477,-2.1424,-2.1425,-2.1425,0,-2.1002,-2.103,-2.1064,-2.1083,-2.11,-2.1132,-2.1153,-2.1167,-2.1189,-2.1223,-2.1244,-2.1278,-2.1307,-2.1362,-2.1382,-2.1415,-2.1416,-2.1439,-2.1421,-2.1416,-2.1415,-2.1413,-2.1415,-2.1443,-2.1443,-2.1443,-2.1444,0,-2.1058,-2.1064,-2.1094,-2.1127,-2.1151,-2.1178,-2.1203,-2.1219,-2.1237,-2.1261,-2.1296,-2.1318,-2.1361,-2.1395,-2.1428,-2.1445,-2.1447,-2.1449,-2.1456,-2.1453,-2.1445,-2.1448,-2.1382,-2.1448,-2.1447,-2.1447,-2.1447,-2.1447,-2.1095,-2.1119,-2.1147,-2.1179,-2.12,-2.1223,-2.1248,-2.1265,-2.1294,-2.133,-2.1337,-2.1373,-2.14,-2.1445,-2.1463,-2.1491,-2.1486,-2.1497,-2.1499,-2.1501,-2.1502,-2.144,-2.1498,-2.1498,-2.1498,-2.1497,-2.1497,0,-2.1151,-2.1168,-2.1198,-2.1233,-2.1258,-2.1257,-2.1285,-2.1306,-2.1338,-2.1363,-2.139,-2.1429,-2.1461,-2.1483,-2.1516,-2.1534,-2.1536,-2.1542,-2.1541,-2.1544,-2.1505,-2.1495,-2.154,-2.154,-2.154,-2.154,-2.154,-2.154,-2.1182,-2.1223,-2.1232,-2.1282,-2.1299,-2.1334,-2.135,-2.1371,-2.1391,-2.1434,-2.1461,-2.1474,-2.1498,-2.1532,-2.1561,-2.1566,-2.1578,-2.1584,-2.1589,-2.1552,-2.1547,-2.1543,-2.1534,-2.1586,-2.1587,-2.1626,-2.1626,-2.1627]}]]